Overview Statistics Trail Chart Weather Telemetry Raw packets
 

This is the latest recevied weather packets stored in our database for station/object W4SNA-3. If no packets are shown the sender has not sent any weather packets the latest 10 day(s).

<< 1 2 3 4 >>
Time Temp. Humidity Pressure Rain* Wind** Luminosity Snow
1788630300 19.44° C 89% 1013.4 hPa 0.51 mm - - -
1788630005 19.44° C 89% 1014 hPa 0.25 mm - - -
1788629700 20° C 88% 1014.5 hPa 0 mm - - -
1788629403 20.56° C 87% 1014.7 hPa 0 mm - - -
1788629100 20.56° C 85% 1014.8 hPa 0 mm - - -
1788628500 22.22° C 80% 1015.2 hPa 0 mm - - -
1788628202 22.78° C 77% 1015.4 hPa 0 mm - - -
1788627435 24.44° C 77% 1015.8 hPa 0 mm - - -
1788627135 25° C 74% 1016 hPa 0 mm - - -
1788626817 26.11° C 72% 1016.1 hPa 0 mm - - -
1788626515 26.67° C 71% 1016.2 hPa 0 mm - - -
1788626214 27.78° C 70% 1016.4 hPa 0 mm - - -
1788625915 28.33° C 72% 1016.2 hPa 0 mm - - -
1788625635 28.89° C 71% 1015.9 hPa 0 mm - - -
1788625314 28.89° C 71% 1016 hPa 0 mm - - -
1788625014 28.89° C 71% 1015.9 hPa 0 mm - - -
1788624731 28.89° C 70% 1015.6 hPa 0 mm - - -
1788624420 29.44° C 70% 1015.6 hPa 0 mm - - -
1788624121 28.89° C 69% 1015.6 hPa 0 mm - - -
1788623815 29.44° C 69% 1015.7 hPa 0 mm - - -
1788623514 29.44° C 68% 1015.8 hPa 0 mm - - -
1788623236 29.44° C 71% 1015.8 hPa 0 mm - - -
1788622914 29.44° C 69% 1015.8 hPa 0 mm - - -
1788622615 29.44° C 68% 1015.7 hPa 0 mm - - -
1788622316 29.44° C 69% 1015.7 hPa 0 mm - - -

* Rain latest hour (hover to see other rain measurements)
** Current wind speed in m/s (hover to see current wind gust speed)